Station DESW1 - Destruction Island, WA Image indicating link to RSS feed of recent meteorological observations for station DESW1


Conditions at DESW1 as of
(10:00 pm CDT on 04/18/2024)
0300 GMT on 04/19/2024:
     

Click on the graph icon in the table below to see a time series plot of the last five days of that observation.

5-day plot - Wind Direction Wind Direction (WDIR): N ( 360 deg true )
5-day plot - Wind Speed Wind Speed (WSPD): 11 kts
5-day plot - Wind Gust Wind Gust (GST): 11 kts
5-day plot - Atmospheric Pressure Atmospheric Pressure (PRES):30.15 in
5-day plot - Pressure Tendency Pressure Tendency (PTDY):-0.02 in ( Falling )
5-day plot - Wind Speed at 10 Meters Wind Speed at 10 meters (WSPD10M): 10 kts
5-day plot - Wind Speed at 20 Meters Wind Speed at 20 meters (WSPD20M): 10 kts
5-day plot -  Wind Speed, Wind Gust and Atmospheric Pressure Combined plot of Wind Speed, Gust, and Air Pressure
Continuous Winds
TIME
(CDT)
5-day plot - Wind Direction WDIR 5-day plot - Wind Speed WSPD
10:00 pmN ( 2 deg ) 11 kts
9:50 pmN ( 1 deg ) 12 kts
9:40 pmN ( 6 deg ) 12 kts
9:30 pmN ( 7 deg ) 14 kts
9:20 pmN ( 8 deg ) 16 kts
9:10 pmN ( 6 deg ) 16 kts
 
Peak gust during the measurement hour
TIME
(CDT)
5-day plot - Gust Direction GDR 5-day plot - Gust Speed GST
9:02 pmN ( 10 deg ) 18 kts
Previous observations
TIME
(CDT)
5-day plot - Wind Direction
WDIR
 
5-day plot - Wind Speed
WSPD
kts
5-day plot - Wind Gust
GST
kts
5-day plot - Wave Height
WVHT
ft
5-day plot - Dominant Wave Period
DPD
sec
5-day plot - Average Wave Period
APD
sec
5-day plot - Mean Wave Direction
MWD
 
5-day plot - Atmospheric Pressure
PRES
in
5-day plot - Pressure Tendency
PTDY
in
5-day plot - Air Temperature
ATMP
°F
5-day plot - Water Temperature
WTMP
°F
5-day plot - Dew Point
DEWP
°F
5-day plot - Salinity
SAL
psu
5-day plot - Visibility
VIS
nmi
5-day plot - Tide (above MLLW)
TIDE
ft
2024-04-18 09:00 pm N 16 17----30.15-0.03------
2024-04-18 08:00 pm N 8 10----30.16-0.04------
2024-04-18 07:00 pm W 3 4----30.17-0.04------
2024-04-18 06:00 pmWSW 14 14----30.18-0.05------
2024-04-18 05:00 pm W 16 17----30.20-0.06------
2024-04-18 04:00 pm W 13 13----30.21-0.06------
2024-04-18 03:00 pm W 8 9----30.23-0.05------
2024-04-18 02:00 pm SW 4 4----30.25-0.04------
2024-04-18 01:00 pmWSW 3 4----30.27-0.03------
2024-04-18 12:00 pm SW 1 2----30.28-0.02------
2024-04-18 11:00 amESE 9 9----30.29+0.00------
2024-04-18 10:00 amENE 10 12----30.30+0.00------
2024-04-18 09:00 am NE 11 12----30.30-0.02------
2024-04-18 08:00 amENE 14 14----30.30-0.04------
2024-04-18 07:00 amENE 11 11----30.31-0.04------
2024-04-18 06:00 amENE 9 10----30.32-0.03------
2024-04-18 05:00 amENE 9 11----30.33-0.02------
2024-04-18 04:00 amENE 11 11----30.35-0.01------
2024-04-18 03:00 amNNE 8 9----30.35+0.00------
2024-04-18 02:00 amENE 8 9----30.36+0.00------
2024-04-18 01:00 am N 12 13----30.36+0.00------
2024-04-18 12:00 am N 17 18----30.36-0.01------
2024-04-17 11:00 pmNNW 21 23----30.36-0.03------
2024-04-17 10:00 pmNNW 22 24----30.36-0.04------